GW0842 Weather Reports


time (UTC)temp
C
wind
direction
speed
KPH
gust
KPH
rain 1hr
cm
rain 24hr
cm
rain mn
cm
humidity
%
barometer
mb
20260510180316 27 34 3.2 6.4 0.00 0.00 0.00 42 1028.2
20260510175813 27 308 9.7 9.7 0.00 0.00 0.00 41 1028.4
20260510175309 27 334 4.8 8.0 0.00 0.00 0.00 42 1028.3
20260510174806 27 255 4.8 12.9 0.00 0.00 0.00 42 1028.3
20260510174303 27 315 6.4 9.7 0.00 0.00 0.00 42 1028.4
20260510173759 29 307 4.8 4.8 0.00 0.00 0.00 41 1028.5
20260510173255 28 7 0.0 3.2 0.00 0.00 0.00 41 1028.2
20260510172751 27 196 6.4 8.0 0.00 0.00 0.00 40 1028.5
20260510172247 27 270 6.4 6.4 0.00 0.00 0.00 40 1028.5
20260510171744 27 65 3.2 4.8 0.00 0.00 0.00 42 1028.5
20260510171241 27 286 0.0 14.5 0.00 0.00 0.00 42 1028.7
20260510170738 26 285 9.7 9.7 0.00 0.00 0.00 44 1028.6
20260510170234 27 79 4.8 4.8 0.00 0.00 0.00 42 1028.5
20260510165730 27 318 4.8 9.7 0.00 0.00 0.00 46 1028.6
20260510165226 26 159 0.0 9.7 0.00 0.00 0.00 43 1028.7
20260510164723 27 265 3.2 12.9 0.00 0.00 0.00 44 1028.6
20260510164221 26 230 4.8 8.0 0.00 0.00 0.00 45 1028.7
20260510163716 27 180 1.6 6.4 0.00 0.00 0.00 43 1028.8
20260510163212 26 83 4.8 8.0 0.00 0.00 0.00 44 1028.7
20260510162711 26 36 6.4 12.9 0.00 0.00 0.00 41 1029.0
20260510162209 25 85 0.0 8.0 0.00 0.00 0.00 45 1028.8
20260510161705 25 108 6.4 16.1 0.00 0.00 0.00 46 1028.9
20260510161201 25 0 4.8 12.9 0.00 0.00 0.00 46 1028.8
20260510160658 26 124 0.0 12.9 0.00 0.00 0.00 44 1028.8
20260510160153 26 270 0.0 9.7 0.00 0.00 0.00 48 1028.9
20260510155649 26 140 4.8 8.0 0.00 0.00 0.00 46 1028.9
20260510155145 26 57 3.2 4.8 0.00 0.00 0.00 47 1029.2
20260510154641 26 289 4.8 6.4 0.00 0.00 0.00 47 1029.1
20260510154137 26 353 9.7 9.7 0.00 0.00 0.00 47 1029.3
20260510153638 25 97 1.6 11.3 0.00 0.00 0.00 48 1029.0
20260510153135 27 22 4.8 4.8 0.00 0.00 0.00 46 1029.3
20260510152631 26 333 6.4 11.3 0.00 0.00 0.00 45 1029.3
20260510152127 25 0 4.8 19.3 0.00 0.00 0.00 43 1029.4
20260510151624 26 288 4.8 8.0 0.00 0.00 0.00 50 1029.2
20260510151122 26 106 0.0 3.2 0.00 0.00 0.00 49 1029.2
20260510150622 25 194 0.0 4.8 0.00 0.00 0.00 48 1029.3
20260510150118 25 55 4.8 11.3 0.00 0.00 0.00 53 1029.1
20260510145614 25 53 0.0 9.7 0.00 0.00 0.00 56 1029.2
20260510145111 25 54 9.7 9.7 0.00 0.00 0.00 53 1029.1
20260510144607 24 82 0.0 8.0 0.00 0.00 0.00 58 1029.2
20260510144103 25 257 3.2 8.0 0.00 0.00 0.00 58 1029.2
20260510143559 25 270 4.8 11.3 0.00 0.00 0.00 57 1029.1
20260510143056 25 294 0.0 4.8 0.00 0.00 0.00 58 1029.0
20260510142552 25 290 3.2 6.4 0.00 0.00 0.00 60 1029.1
20260510142049 23 297 3.2 8.0 0.00 0.00 0.00 62 1029.1
20260510141546 25 260 3.2 3.2 0.00 0.00 0.00 60 1028.9
20260510141044 23 246 3.2 8.0 0.00 0.00 0.00 64 1029.1
20260510140540 23 48 3.2 6.4 0.00 0.00 0.00 66 1029.2
20260510140039 23 319 3.2 6.4 0.00 0.00 0.00 69 1029.1
20260510135535 23 62 4.8 6.4 0.00 0.00 0.00 67 1029.0
20260510135032 22 315 0.0 6.4 0.00 0.00 0.00 70 1029.1
20260510134529 22 276 4.8 8.0 0.00 0.00 0.00 72 1029.2
20260510134026 22 278 9.7 9.7 0.00 0.00 0.00 71 1029.3
20260510133522 23 90 0.0 6.4 0.00 0.00 0.00 71 1029.2
20260510133018 22 345 0.0 11.3 0.00 0.00 0.00 75 1029.2
20260510132515 21 9 4.8 8.0 0.00 0.00 0.00 75 1029.1
20260510132012 21 57 3.2 8.0 0.00 0.00 0.00 77 1029.1
20260510131509 21 326 3.2 8.0 0.00 0.00 0.00 80 1028.8
20260510131006 21 358 4.8 6.4 0.00 0.00 0.00 80 1029.1
20260510130502 20 279 3.2 11.3 0.00 0.00 0.00 83 1028.8
20260510130000 21 277 1.6 4.8 0.00 0.00 0.00 84 1028.9
20260510125456 20 294 1.6 4.8 0.00 0.00 0.00 87 1028.8
20260510124953 21 240 1.6 3.2 0.00 0.00 0.00 85 1028.8
20260510124449 20 294 1.6 6.4 0.00 0.00 0.00 88 1028.6
20260510123946 20 352 0.0 4.8 0.00 0.00 0.00 90 1028.4
20260510123441 20 278 0.0 3.2 0.00 0.00 0.00 89 1028.4
20260510122938 20 246 0.0 1.6 0.00 0.00 0.00 91 1028.5
20260510122433 19 281 4.8 4.8 0.00 0.00 0.00 93 1028.7
20260510121929 18 291 1.6 4.8 0.00 0.00 0.00 96 1028.6
20260510121427 18 261 0.0 4.8 0.00 0.00 0.00 97 1028.5
20260510120925 18 270 0.0 3.2 0.00 0.00 0.00 95 1028.1
20260510120422 17 254 0.0 0.0 0.00 0.00 0.00 99 1028.3
20260510115917 17 209 0.0 1.6 0.00 0.00 0.00 99 1028.3
20260510115415 17 209 0.0 0.0 0.00 0.00 0.00 99 1028.2
20260510114910 16 254 0.0 0.0 0.00 0.00 0.00 99 1028.2
20260510114408 15 254 0.0 0.0 0.00 0.00 0.00 99 1028.3
20260510113903 15 254 0.0 0.0 0.00 0.00 0.00 99 1028.3
20260510113359 15 254 0.0 0.0 0.00 0.00 0.00 99 1028.0
20260510112856 15 254 0.0 0.0 0.00 0.00 0.00 99 1028.0
20260510112353 15 254 0.0 1.6 0.00 0.00 0.00 99 1028.0
20260510111849 15 261 0.0 0.0 0.00 0.00 0.00 99 1027.9
20260510111345 15 270 0.0 0.0 0.00 0.00 0.00 99 1027.7
20260510110840 15 278 0.0 3.2 0.00 0.00 0.00 99 1027.8
20260510110338 15 279 0.0 3.2 0.00 0.00 0.00 99 1027.6
20260510105834 15 203 0.0 0.0 0.00 0.00 0.00 99 1027.5
20260510105333 15 203 0.0 0.0 0.00 0.00 0.00 99 1027.4
20260510104830 15 203 0.0 0.0 0.00 0.00 0.00 99 1027.4
20260510104327 15 203 0.0 0.0 0.00 0.00 0.00 99 1027.5
20260510103823 15 203 0.0 0.0 0.00 0.00 0.00 99 1027.2
20260510103320 15 254 0.0 1.6 0.00 0.00 0.00 99 1026.9
20260510102816 14 254 0.0 0.0 0.00 0.00 0.00 99 1027.0
20260510102312 15 254 0.0 0.0 0.00 0.00 0.00 99 1026.6
20260510101809 15 254 0.0 0.0 0.00 0.00 0.00 99 1026.7
20260510101307 15 254 0.0 0.0 0.00 0.00 0.00 99 1026.7
20260510100803 15 254 0.0 0.0 0.00 0.00 0.00 99 1026.5
20260510100301 15 254 0.0 0.0 0.00 0.00 0.00 99 1026.9
20260510095756 15 261 0.0 0.0 0.00 0.00 0.00 99 1026.6
20260510095252 15 246 0.0 0.0 0.00 0.00 0.00 99 1026.3
20260510094751 15 246 0.0 0.0 0.00 0.00 0.00 99 1026.2
20260510094246 15 246 0.0 0.0 0.00 0.00 0.00 99 1026.2
20260510093742 15 246 0.0 0.0 0.00 0.00 0.00 99 1026.3
20260510093240 15 246 0.0 0.0 0.00 0.00 0.00 99 1026.2
20260510092736 15 270 0.0 1.6 0.00 0.00 0.00 99 1026.3
20260510092231 15 246 0.0 0.0 0.00 0.00 0.00 99 1026.1
20260510091727 15 246 0.0 0.0 0.00 0.00 0.00 99 1026.3
20260510091224 15 261 0.0 1.6 0.00 0.00 0.00 99 1026.1
20260510090721 15 270 0.0 0.0 0.00 0.00 0.00 99 1026.2
20260510090218 15 270 0.0 0.0 0.00 0.00 0.00 99 1026.1
20260510085713 15 270 0.0 0.0 0.00 0.00 0.00 99 1026.0
20260510085208 15 270 0.0 1.6 0.00 0.00 0.00 99 1025.9
20260510084704 15 206 1.6 1.6 0.00 0.00 0.00 99 1025.7
20260510084201 15 254 0.0 1.6 0.00 0.00 0.00 99 1026.0
20260510083658 15 278 0.0 0.0 0.00 0.00 0.00 99 1025.6
20260510083155 15 254 0.0 0.0 0.00 0.00 0.00 99 1025.8
20260510082651 15 270 0.0 1.6 0.00 0.00 0.00 99 1025.8
20260510082146 15 246 0.0 0.0 0.00 0.00 0.00 99 1025.6
20260510081642 15 246 0.0 0.0 0.00 0.00 0.00 99 1025.7
20260510081138 15 246 0.0 0.0 0.00 0.00 0.00 99 1025.5
20260510080637 15 254 0.0 0.0 0.00 0.00 0.00 99 1025.7
20260510080134 15 246 0.0 1.6 0.00 0.00 0.00 99 1025.9
20260510075631 15 300 0.0 1.6 0.00 0.00 0.00 99 1025.9
20260510075128 15 240 0.0 1.6 0.00 0.00 0.00 99 1025.5
20260510074625 15 255 1.6 1.6 0.00 0.00 0.00 99 1025.6
20260510074121 15 240 0.0 0.0 0.00 0.00 0.00 99 1025.4
20260510073617 15 270 0.0 0.0 0.00 0.00 0.00 99 1025.4
20260510073114 16 270 0.0 1.6 0.00 0.00 0.00 99 1025.5
20260510072611 15 255 0.0 0.0 0.00 0.00 0.00 99 1025.4
20260510072107 16 279 0.0 1.6 0.00 0.00 0.00 99 1025.5
20260510071603 16 246 0.0 0.0 0.00 0.00 0.00 99 1025.3
20260510071101 16 209 0.0 3.2 0.00 0.00 0.00 99 1025.2
20260510070557 15 187 0.0 0.0 0.00 0.00 0.00 99 1025.4
20260510070055 16 168 0.0 3.2 0.00 0.00 0.00 99 1025.3
20260510065551 15 279 0.0 1.6 0.00 0.00 0.00 99 1025.4
20260510065047 16 203 0.0 1.6 0.00 0.00 0.00 99 1025.4
20260510064543 16 254 0.0 0.0 0.00 0.00 0.00 99 1025.3
20260510064040 16 261 0.0 0.0 0.00 0.00 0.00 99 1025.4
20260510063537 16 254 0.0 1.6 0.00 0.00 0.00 99 1025.3
20260510063034 16 261 0.0 0.0 0.00 0.00 0.00 99 1025.0
20260510062530 16 261 0.0 0.0 0.00 0.00 0.00 99 1025.1
20260510062025 16 261 0.0 0.0 0.00 0.00 0.00 99 1025.0
20260510061522 16 261 0.0 0.0 0.00 0.00 0.00 99 1025.2
20260510061019 16 261 0.0 0.0 0.00 0.00 0.00 99 1025.4
20260510060515 16 246 0.0 0.0 0.00 0.00 0.00 99 1025.4
20260510060012 16 246 0.0 0.0 0.00 0.00 0.00 99 1025.6
20260510055507 16 203 0.0 0.0 0.00 0.00 0.00 99 1025.6
20260510055006 16 203 0.0 1.6 0.00 0.00 0.00 99 1025.4
20260510054501 16 279 0.0 1.6 0.00 0.00 0.00 99 1025.5
20260510053956 16 279 0.0 3.2 0.00 0.00 0.00 99 1025.7
20260510053451 16 229 4.8 4.8 0.00 0.00 0.00 99 1025.6
20260510052948 16 270 0.0 0.0 0.00 0.00 0.00 99 1025.8
20260510052444 16 270 0.0 1.6 0.00 0.00 0.00 99 1025.7
20260510051940 16 278 0.0 0.0 0.00 0.00 0.00 99 1025.8
20260510051437 16 198 0.0 0.0 0.00 0.00 0.00 99 1026.1
20260510050933 17 324 4.8 4.8 0.00 0.00 0.00 99 1025.9
20260510050430 17 194 0.0 1.6 0.00 0.00 0.00 99 1025.8
20260510045927 17 206 0.0 1.6 0.00 0.00 0.00 99 1025.8
20260510045425 17 340 0.0 1.6 0.00 0.00 0.00 99 1025.8
20260510044921 17 261 0.0 3.2 0.00 0.00 0.00 99 1025.9
20260510044418 17 340 0.0 3.2 0.00 0.00 0.00 99 1026.0
20260510043915 16 187 0.0 1.6 0.00 0.00 0.00 99 1026.0
20260510043411 16 270 0.0 3.2 0.00 0.00 0.00 99 1026.0
20260510042909 16 240 0.0 1.6 0.00 0.00 0.00 99 1025.9
20260510042405 16 203 0.0 3.2 0.00 0.00 0.00 99 1025.9
20260510041900 16 249 0.0 4.8 0.00 0.00 0.00 99 1025.8
20260510041358 16 203 0.0 1.6 0.00 0.00 0.00 99 1026.0
20260510040855 16 279 0.0 0.0 0.00 0.00 0.00 99 1025.9
20260510040352 17 262 0.0 1.6 0.00 0.00 0.00 99 1025.9
20260510035847 16 279 0.0 0.0 0.00 0.00 0.00 99 1026.0
20260510035343 16 246 0.0 1.6 0.00 0.00 0.00 99 1025.9
20260510034839 17 203 0.0 1.6 0.00 0.00 0.00 99 1025.9
20260510034337 17 240 0.0 3.2 0.00 0.00 0.00 99 1025.7
20260510033834 17 270 0.0 1.6 0.00 0.00 0.00 99 1025.5
20260510033330 17 270 0.0 1.6 0.00 0.00 0.00 99 1025.7
20260510032827 17 270 0.0 1.6 0.00 0.00 0.00 99 1025.7
20260510032324 17 180 0.0 1.6 0.00 0.00 0.00 98 1025.6
20260510031819 17 255 0.0 0.0 0.00 0.00 0.00 98 1025.4
20260510031315 17 255 0.0 0.0 0.00 0.00 0.00 99 1025.7
20260510030809 17 270 1.6 3.2 0.00 0.00 0.00 99 1025.6
20260510030306 17 270 0.0 1.6 0.00 0.00 0.00 98 1025.5
20260510025803 17 249 0.0 0.0 0.00 0.00 0.00 98 1025.5
20260510025301 17 249 0.0 1.6 0.00 0.00 0.00 98 1025.6
20260510024757 17 270 0.0 0.0 0.00 0.00 0.00 98 1025.5
20260510024254 17 195 0.0 3.2 0.00 0.00 0.00 98 1025.2
20260510023749 17 249 0.0 1.6 0.00 0.00 0.00 97 1025.6
20260510023242 17 106 0.0 1.6 0.00 0.00 0.00 97 1025.4
20260510022738 17 270 0.0 0.0 0.00 0.00 0.00 97 1025.5
20260510022238 17 262 0.0 3.2 0.00 0.00 0.00 96 1025.5
20260510021737 17 270 0.0 3.2 0.00 0.00 0.00 96 1025.3
20260510021236 17 249 0.0 0.0 0.00 0.00 0.00 96 1025.5
20260510020731 17 270 1.6 1.6 0.00 0.00 0.00 96 1025.3
20260510020226 17 255 0.0 3.2 0.00 0.00 0.00 96 1025.4
20260510015722 17 195 0.0 1.6 0.00 0.00 0.00 96 1025.1
20260510015218 17 180 0.0 0.0 0.00 0.00 0.00 96 1025.4
20260510014714 17 254 0.0 0.0 0.00 0.00 0.00 96 1025.2
20260510014211 17 254 0.0 0.0 0.00 0.00 0.00 96 1025.0
20260510013711 17 254 0.0 0.0 0.00 0.00 0.00 95 1024.8
20260510013208 17 194 0.0 1.6 0.00 0.00 0.00 94 1024.7
20260510012702 17 254 0.0 0.0 0.00 0.00 0.00 94 1024.8
20260510012157 18 249 1.6 3.2 0.00 0.00 0.00 93 1024.9
20260510011652 18 254 0.0 1.6 0.00 0.00 0.00 93 1024.5
20260510011148 18 255 0.0 1.6 0.00 0.00 0.00 92 1024.5
20260510010644 18 195 0.0 1.6 0.00 0.00 0.00 91 1024.6
20260510010142 18 194 0.0 0.0 0.00 0.00 0.00 90 1024.3
20260510005638 18 203 0.0 0.0 0.00 0.00 0.00 90 1024.2
20260510005135 19 195 0.0 1.6 0.00 0.00 0.00 89 1024.2
20260510004633 19 209 0.0 1.6 0.00 0.00 0.00 88 1024.5
20260510004131 20 261 0.0 0.0 0.00 0.00 0.00 87 1024.4
20260510003627 20 261 0.0 0.0 0.00 0.00 0.00 87 1024.3
20260510003123 20 261 0.0 0.0 0.00 0.00 0.00 86 1024.3
20260510002618 20 45 0.0 3.2 0.00 0.00 0.00 85 1024.3
20260510002115 20 180 0.0 3.2 0.00 0.00 0.00 85 1024.1
20260510001612 20 215 0.0 0.0 0.00 0.00 0.00 85 1024.3
20260510001111 20 286 0.0 1.6 0.00 0.00 0.00 85 1024.3
20260510000611 20 278 0.0 1.6 0.00 0.00 0.00 84 1024.2
20260510000108 20 270 0.0 1.6 0.00 0.00 0.00 84 1024.1
20260509235604 21 270 0.0 0.0 0.00 0.00 0.00 84 1023.9
20260509235101 21 264 3.2 3.2 0.00 0.00 0.00 83 1023.9
20260509234557 21 249 0.0 3.2 0.00 0.00 0.00 82 1024.0
20260509234055 21 270 1.6 1.6 0.00 0.00 0.00 81 1024.0
20260509233553 21 341 0.0 3.2 0.00 0.00 0.00 81 1023.7
20260509233050 21 162 1.6 9.7 0.00 0.00 0.00 80 1023.9
20260509232546 21 233 4.8 4.8 0.00 0.00 0.00 79 1023.8
20260509232043 21 240 0.0 4.8 0.00 0.00 0.00 81 1023.7
20260509231539 21 209 0.0 4.8 0.00 0.00 0.00 79 1023.6
20260509231037 22 232 3.2 4.8 0.00 0.00 0.00 79 1023.6
20260509230534 22 180 0.0 3.2 0.00 0.00 0.00 78 1023.7
20260509230031 22 255 0.0 3.2 0.00 0.00 0.00 77 1023.5
20260509225526 22 225 4.8 4.8 0.00 0.00 0.00 76 1023.6
20260509225022 22 265 4.8 6.4 0.00 0.00 0.00 77 1023.3
20260509224518 22 249 0.0 8.0 0.00 0.00 0.00 76 1023.4
20260509224015 23 254 1.6 4.8 0.00 0.00 0.00 74 1023.5
20260509223512 23 278 0.0 4.8 0.00 0.00 0.00 76 1023.5
20260509223010 23 262 1.6 4.8 0.00 0.00 0.00 72 1023.6
20260509222505 23 324 3.2 9.7 0.00 0.00 0.00 74 1023.6
20260509222001 23 109 4.8 6.4 0.00 0.00 0.00 73 1023.6
20260509221457 23 246 6.4 6.4 0.00 0.00 0.00 73 1023.5
20260509220953 23 251 9.7 11.3 0.00 0.00 0.00 72 1023.5
20260509220449 23 300 1.6 6.4 0.00 0.00 0.00 73 1023.5
20260509215945 22 171 6.4 8.0 0.00 0.00 0.00 74 1023.6
20260509215441 24 330 3.2 3.2 0.00 0.00 0.00 71 1023.5
20260509214939 23 11 3.2 6.4 0.00 0.00 0.00 72 1023.6
20260509214436 23 311 0.0 8.0 0.00 0.00 0.00 72 1023.5
20260509213932 23 96 1.6 4.8 0.00 0.00 0.00 73 1023.4
20260509213428 23 208 4.8 6.4 0.00 0.00 0.00 74 1023.5
20260509212926 23 216 4.8 8.0 0.00 0.00 0.00 72 1023.4
20260509212423 23 29 3.2 4.8 0.00 0.00 0.00 72 1023.2
20260509211919 22 49 3.2 6.4 0.00 0.00 0.00 74 1023.3
20260509211415 22 212 3.2 8.0 0.00 0.00 0.00 74 1023.0
20260509210911 23 250 3.2 9.7 0.00 0.00 0.00 73 1023.2
20260509210409 23 199 9.7 11.3 0.00 0.00 0.00 70 1023.0
20260509205904 23 209 4.8 9.7 0.00 0.00 0.00 71 1023.1
20260509205404 23 183 4.8 12.9 0.00 0.00 0.00 73 1023.4
20260509204900 23 174 1.6 8.0 0.00 0.00 0.00 72 1023.4
20260509204357 23 199 6.4 9.7 0.00 0.00 0.00 72 1023.4
20260509203853 23 345 0.0 4.8 0.00 0.00 0.00 72 1023.4
20260509203349 23 317 6.4 9.7 0.00 0.00 0.00 71 1023.3
20260509202847 23 278 4.8 8.0 0.00 0.00 0.00 71 1023.4
20260509202342 23 270 1.6 9.7 0.00 0.00 0.00 72 1023.5
20260509201837 22 6 0.0 9.7 0.00 0.00 0.00 72 1023.4
20260509201333 22 119 4.8 6.4 0.00 0.00 0.00 74 1023.5
20260509200830 23 245 3.2 4.8 0.00 0.00 0.00 72 1023.1
20260509200326 22 6 0.0 9.7 0.00 0.00 0.00 72 1023.4
20260509195822 23 206 3.2 4.8 0.00 0.00 0.00 72 1023.5
20260509195322 22 204 3.2 8.0 0.00 0.00 0.00 73 1023.5
20260509194822 22 252 4.8 6.4 0.00 0.00 0.00 71 1023.8
20260509194319 22 254 8.0 8.0 0.00 0.00 0.00 72 1023.8
20260509193815 22 195 3.2 12.9 0.00 0.00 0.00 72 1023.5
20260509193315 23 333 6.4 8.0 0.00 0.00 0.00 70 1023.7
20260509192811 23 5 0.0 4.8 0.00 0.00 0.00 70 1024.0
20260509192308 22 315 4.8 9.7 0.00 0.00 0.00 71 1024.0
20260509191802 22 323 3.2 6.4 0.00 0.00 0.00 70 1024.0
20260509191259 22 195 3.2 11.3 0.00 0.00 0.00 69 1024.1
20260509190754 23 172 3.2 6.4 0.00 0.00 0.00 68 1023.9
20260509190252 23 303 3.2 9.7 0.00 0.00 0.00 65 1023.8
20260509185749 24 270 3.2 4.8 0.00 0.00 0.00 65 1024.0
20260509185246 23 255 4.8 8.0 0.00 0.00 0.00 66 1024.1
20260509184743 23 274 8.0 9.7 0.00 0.00 0.00 68 1024.2
20260509184241 23 306 1.6 4.8 0.00 0.00 0.00 67 1024.1
20260509183737 22 280 8.0 16.1 0.00 0.00 0.00 66 1023.9
20260509183232 23 325 9.7 16.1 0.00 0.00 0.00 64 1024.1
20260509182727 24 312 0.0 14.5 0.00 0.00 0.00 62 1024.2
20260509182226 24 233 6.4 8.0 0.00 0.00 0.00 62 1024.0
20260509181722 23 313 12.9 12.9 0.00 0.00 0.00 63 1024.2
20260509181220 23 120 4.8 11.3 0.00 0.00 0.00 61 1024.3
20260509180717 23 258 4.8 17.7 0.00 0.00 0.00 62 1024.5